Theta_e
289 290 290 290 290 291 290 289 289 290 291 293 295 297 299 301 304 307 311 316 320 320 321 320 319 320 319 319 319 318 316 315 311 315 317 319 314 312 307 306 305 305 305
287 288 286 287 288 286 285 285 286 286 288 290 292 293 295 296 298 300 302 305 309 311 315 318 319 319 319 319 319 317 317 317 314 312 315 315 313 314 313 306 300 300 301
285 285 283 284 283 281 282 282 283 283 284 286 287 289 291 293 293 295 299 300 299 300 304 310 314 317 318 318 318 317 318 317 316 313 313 316 313 298 300 296 297 298 297
283 281 280 281 279 279 280 280 280 281 282 283 284 287 289 290 290 293 292 293 294 296 299 301 303 307 313 317 317 317 317 316 315 313 313 313 298 291 291 295 291 291 294
281 278 277 277 277 278 278 278 278 279 279 281 283 284 285 286 288 287 289 290 290 291 293 296 299 299 294 298 306 314 316 315 313 312 311 310 292 286 292 295 299 297 290
276 276 276 276 276 276 276 276 276 277 277 278 278 280 280 282 284 287 288 286 287 288 289 291 294 293 297 297 298 299 303 312 312 311 309 307 305 299 297 300 299 288 288
275 274 274 274 274 274 274 274 274 274 274 275 276 278 278 279 282 283 285 285 286 287 288 289 290 292 292 295 297 298 300 299 301 307 308 310 308 303 301 294 294 294 292
273 273 273 273 272 273 273 273 273 273 273 274 275 275 276 277 280 282 284 284 285 286 287 288 288 289 291 291 293 293 295 299 305 307 306 307 308 309 301 300 298 292 285
272 272 272 272 271 271 272 271 272 272 273 274 274 274 274 275 279 281 282 281 281 282 285 287 287 289 290 291 291 290 290 292 296 298 299 302 302 302 302 294 290 288 288
270 270 271 271 270 271 271 271 272 272 273 273 273 274 275 275 278 281 282 280 280 281 282 283 285 287 289 291 290 289 287 288 290 291 294 298 298 298 296 297 295 292 290
269 269 269 269 269 271 270 270 271 271 272 272 273 275 276 277 277 280 280 278 278 278 278 278 281 284 287 289 290 287 286 289 289 289 291 293 295 293 295 296 298 296 292
267 267 267 268 269 270 269 270 270 271 271 271 272 273 274 275 276 277 279 279 279 276 277 278 279 282 285 287 287 289 290 290 289 288 289 290 292 291 292 292 293 293 298
264 264 266 267 268 269 268 268 269 269 269 270 271 270 271 273 273 277 277 278 277 276 276 278 279 281 283 284 287 288 287 287 287 286 287 289 292 293 291 289 286 285 284
261 264 265 265 266 267 267 268 268 268 269 270 269 269 269 270 272 274 275 275 275 274 275 273 276 277 278 282 285 287 287 287 287 287 288 290 292 290 288 288 287 285 286
262 263 263 264 264 264 265 266 267 269 271 269 269 269 269 267 272 275 274 273 272 273 269 268 268 269 269 271 272 274 275 283 287 287 288 288 289 289 287 287 287 284 285
260 261 261 262 262 263 263 263 267 269 270 271 271 270 270 271 274 274 274 273 272 272 265 264 264 265 266 266 267 269 271 272 274 286 287 288 287 288 287 285 286 284 285
256 259 260 260 260 260 260 260 259 262 266 267 268 269 269 270 271 271 271 270 268 267 261 262 262 263 264 264 265 266 267 269 271 272 287 287 287 287 286 285 284 284 284
252 256 258 257 257 258 258 258 258 257 256 258 262 265 266 268 268 268 268 264 259 260 260 259 260 261 262 262 263 264 265 267 268 270 273 286 286 286 285 285 284 284 284
254 255 255 255 255 256 256 256 256 256 256 255 256 258 259 265 264 264 263 257 256 256 257 258 259 259 261 261 262 263 264 265 266 267 269 271 283 286 285 285 285 284 283
250 254 252 251 251 252 253 253 253 253 254 253 253 254 255 257 254 254 255 255 254 254 255 255 257 258 259 260 260 261 262 263 265 266 267 268 272 279 285 285 285 284 283
248 249 250 247 247 248 249 249 251 251 251 251 252 253 262 253 252 252 253 253 253 253 253 253 254 255 257 258 258 258 260 261 263 264 266 267 269 272 279 285 285 284 283
244 243 243 243 247 248 248 249 249 249 249 249 250 251 258 251 251 251 251 252 252 253 253 252 253 254 255 256 256 256 257 258 260 261 265 266 267 270 274 280 283 283 281
243 242 243 243 244 247 247 246 247 247 248 248 249 249 249 250 250 250 250 251 251 251 252 251 251 252 253 254 255 256 256 257 258 261 264 265 266 268 271 274 278 278 274
242 242 243 243 244 245 245 246 247 247 247 247 247 248 248 249 249 249 249 250 250 250 251 250 250 251 252 252 253 254 256 257 260 261 266 265 265 266 268 272 274 274 274
241 242 243 244 242 244 244 245 246 245 245 246 247 247 248 248 248 248 249 249 249 249 249 249 250 250 250 250 250 252 254 257 260 264 266 265 264 265 266 268 271 271 271
242 243 243 242 242 242 242 243 245 245 245 246 247 247 247 247 247 247 248 248 248 248 248 249 249 249 249 250 251 254 256 260 263 265 265 264 263 263 264 266 267 269 269
Wind_Speed
12 11 12 12 12 12 11 12 13 12 13 13 12 12 13 13 13 12 12 13 13 13 13 14 14 15 11 11 11 11 12 12 15 12 11 10 8 11 9 9 8 10 9
11 11 13 13 13 13 13 13 14 15 14 13 14 13 13 13 13 13 14 13 14 15 15 16 16 11 14 15 12 14 13 14 13 21 13 10 13 14 14 11 9 8 9
11 12 12 13 14 15 14 14 14 14 14 14 14 14 13 13 14 14 13 14 14 15 15 16 16 16 15 12 13 12 14 12 14 14 16 11 10 3 5 2 4 7 7
11 13 13 13 14 13 13 13 14 14 14 14 14 13 13 14 14 13 16 15 15 14 15 15 16 17 17 16 15 15 13 13 11 12 14 13 6 2 1 5 5 4 7
9 11 12 12 12 11 12 13 12 12 12 13 14 13 14 13 10 17 17 17 18 18 16 15 15 16 19 19 13 17 16 14 13 13 15 12 5 3 8 6 10 6 6
10 9 10 12 12 12 12 13 13 12 12 12 13 13 13 11 22 24 21 18 19 19 18 17 16 15 16 19 20 23 20 19 19 13 11 13 14 11 6 11 11 5 5
10 10 12 12 12 12 12 13 13 14 14 14 13 13 14 14 24 26 26 16 17 18 19 18 18 14 16 17 22 25 23 22 23 18 21 17 16 11 12 11 11 10 6
10 12 12 13 13 13 13 14 14 13 14 13 13 15 14 13 26 28 30 16 16 17 18 19 20 20 18 17 19 19 21 19 18 13 15 18 17 13 15 16 17 8 3
10 11 11 12 12 12 14 15 13 13 13 13 13 15 16 15 27 28 26 17 16 18 16 18 19 19 21 22 19 20 19 19 16 20 23 25 19 18 14 6 6 7 6
11 12 11 11 11 12 12 13 12 11 11 11 13 13 15 15 23 28 24 13 16 15 17 18 23 23 27 24 17 18 22 18 16 16 16 20 18 16 17 16 11 12 7
10 10 10 11 11 11 11 10 10 11 12 12 12 11 11 13 16 27 29 16 15 17 17 17 16 31 31 31 28 20 23 24 24 18 17 15 13 11 9 13 14 13 11
9 9 9 9 8 9 10 10 10 10 10 10 11 10 9 11 17 20 28 26 27 17 18 17 19 36 38 37 30 31 31 26 14 15 14 14 13 10 9 11 14 14 11
9 8 6 8 8 8 8 9 8 9 9 10 10 10 10 8 10 25 27 30 27 20 16 26 41 39 39 30 29 29 26 13 13 14 15 15 12 11 9 6 2 3 2
7 6 6 7 8 7 7 7 7 7 8 9 10 10 10 11 12 14 14 15 20 17 24 18 24 28 30 27 20 17 11 11 12 13 15 13 11 8 8 8 8 7 6
6 6 6 5 6 7 8 7 8 8 12 11 10 10 12 13 14 25 23 16 15 19 17 12 13 14 16 15 15 15 15 16 13 12 12 12 12 10 10 8 8 7 9
5 5 6 6 6 7 7 7 13 17 19 18 21 17 10 22 29 30 29 30 29 30 11 13 14 14 15 15 16 16 15 17 17 17 12 12 12 11 10 7 8 9 11
4 6 6 7 6 7 7 7 9 10 17 18 21 22 23 25 29 28 29 29 26 21 10 12 12 14 14 15 15 16 17 17 19 19 15 12 11 10 10 9 10 10 10
3 5 5 5 5 6 7 7 7 8 9 7 13 18 22 25 29 28 29 21 13 14 11 12 13 13 14 15 16 16 17 17 17 16 20 14 11 10 9 10 10 11 10
5 4 4 5 5 6 5 6 6 7 8 8 8 11 15 25 26 24 25 10 11 12 12 12 12 14 13 14 15 15 17 16 17 16 16 16 17 10 10 10 10 13 13
3 6 5 3 4 4 4 5 5 6 7 8 8 9 10 11 10 11 10 11 11 11 12 12 12 13 14 14 15 15 16 17 17 16 17 16 16 18 10 11 9 9 10
3 4 5 3 3 3 3 4 5 5 6 7 8 8 22 8 9 9 10 9 10 11 12 13 12 12 13 13 14 15 16 16 15 17 16 16 16 16 18 9 10 9 9
2 2 2 3 3 4 4 4 5 5 6 7 8 8 20 6 7 8 9 9 9 10 9 11 12 11 12 13 14 15 16 16 16 17 18 17 16 15 15 15 9 7 6
1 3 3 3 3 5 4 4 4 5 6 7 7 8 8 7 8 8 9 9 9 10 10 10 11 12 11 12 12 13 15 16 16 17 18 18 16 15 14 13 10 3 5
1 3 3 3 3 3 4 5 5 7 7 7 7 7 8 8 9 10 10 9 10 10 10 10 11 15 14 14 13 13 13 14 16 17 20 17 16 17 14 11 8 5 4
2 3 3 3 4 4 5 5 6 6 7 7 7 7 8 8 9 10 10 9 10 10 12 12 11 14 17 21 20 22 22 25 23 23 13 16 18 21 15 11 8 3 2
3 4 4 3 3 4 4 5 6 7 7 7 7 8 8 9 9 10 10 10 10 11 14 11 14 19 21 17 18 22 25 25 23 26 13 13 14 14 14 13 10 4 1
Wind_Direction
24 25 29 23 23 24 17 10 0 353 354 352 342 343 346 338 337 331 318 310 289 275 265 260 257 254 247 241 237 237 241 235 254 254 253 245 221 225 221 217 217 212 216
22 28 24 18 17 16 12 5 359 356 353 348 348 343 340 338 336 333 322 323 319 310 304 287 270 262 252 251 249 243 239 238 244 261 249 244 226 223 231 211 208 211 212
13 29 23 19 12 6 1 358 357 352 351 350 346 343 341 336 332 328 325 332 326 316 311 307 302 287 268 261 258 260 247 242 240 250 260 250 236 172 213 230 217 212 213
12 8 17 14 3 359 351 349 353 351 349 348 344 342 340 336 331 333 329 322 316 307 303 297 296 290 291 286 273 261 257 255 244 248 257 252 213 195 254 211 233 222 216
29 14 360 356 353 351 350 348 347 349 347 341 337 336 339 336 338 333 327 323 318 312 306 300 293 292 297 287 286 282 271 266 253 252 251 249 195 188 199 196 232 211 214
359 11 0 357 349 354 353 346 348 349 347 347 342 338 339 336 331 331 329 318 313 310 307 305 302 298 296 296 292 278 269 274 271 268 258 248 239 218 205 212 212 182 234
359 360 0 356 351 349 349 349 352 349 348 351 350 343 340 333 337 334 329 317 311 307 305 305 305 306 306 304 304 302 289 266 252 265 272 259 271 224 214 222 208 209 211
358 1 359 356 349 350 352 356 351 350 351 349 345 346 337 336 340 340 337 325 319 314 308 307 304 305 307 308 304 297 294 292 290 263 251 265 262 260 211 214 213 198 67
7 357 356 352 345 346 356 353 351 346 345 350 347 343 340 336 341 341 340 331 325 321 320 316 311 303 301 295 293 297 294 295 290 287 281 273 266 255 223 185 180 169 209
360 353 348 349 349 348 348 349 342 343 346 343 341 338 325 318 331 336 343 332 326 326 321 314 308 306 304 301 295 297 297 302 302 297 289 279 270 260 220 204 194 206 199
348 341 343 343 339 345 335 334 337 340 341 340 331 326 324 339 341 346 349 344 332 321 316 313 310 309 304 300 294 293 288 296 294 290 284 277 267 250 236 218 217 206 200
342 332 329 328 336 337 336 342 345 343 340 331 332 333 342 339 336 341 346 343 336 325 313 312 306 304 302 295 290 286 285 288 285 284 278 271 265 248 235 214 217 217 224
334 315 316 330 340 341 345 347 344 352 345 343 341 339 330 335 335 341 343 347 342 332 317 314 313 305 297 292 287 283 285 279 280 279 278 275 267 259 238 229 187 148 86
301 313 337 348 344 345 346 351 347 348 336 345 344 326 328 346 338 348 348 341 341 335 332 323 330 338 346 339 315 294 269 258 262 276 279 280 271 249 226 215 212 207 202
323 338 344 345 348 349 352 347 342 345 347 350 332 337 341 343 342 344 345 343 342 338 343 331 339 346 344 341 336 331 327 320 274 268 267 271 269 249 232 208 210 196 212
350 351 351 352 353 350 346 336 347 351 346 339 341 344 349 335 341 342 345 347 345 352 346 347 345 345 342 339 336 329 328 320 330 293 268 265 267 258 239 217 210 208 207
356 355 355 360 352 344 341 340 342 338 333 340 347 346 348 337 347 347 348 350 344 355 355 350 342 339 338 337 333 330 326 325 314 329 281 266 261 259 244 225 217 213 215
354 359 7 347 341 341 339 335 327 325 326 329 336 343 347 344 350 350 350 350 345 356 351 343 342 337 337 335 331 328 325 326 328 319 327 284 264 256 244 233 222 220 214
11 3 357 344 340 335 323 326 322 319 318 317 324 339 341 347 346 345 354 355 345 341 341 338 337 333 331 330 327 326 324 324 325 324 326 330 305 259 249 242 230 223 216
2 353 357 338 330 330 330 326 321 321 320 319 327 336 321 358 344 338 340 340 338 337 334 332 330 328 323 328 327 326 324 325 328 330 330 329 320 315 263 256 237 222 213
353 345 340 340 332 312 297 304 311 311 310 313 316 324 336 359 322 322 326 329 330 327 326 325 322 324 322 328 326 323 322 323 325 324 328 326 321 318 318 262 256 229 216
348 311 324 310 307 316 310 298 301 301 306 305 311 316 333 324 313 312 313 317 316 313 312 315 314 318 319 322 322 320 320 321 319 326 322 327 320 316 318 310 285 235 198
336 318 317 303 298 298 289 275 292 296 298 301 304 308 315 311 308 309 311 311 312 311 311 311 308 309 312 316 315 312 314 315 317 318 313 326 321 316 314 312 293 247 181
262 280 278 286 291 279 292 303 299 293 296 299 302 302 305 305 306 305 303 305 306 307 308 308 303 301 306 310 311 307 310 311 312 312 320 324 321 319 315 308 307 283 203
234 263 270 271 275 290 300 290 290 289 289 285 288 290 294 295 296 298 301 302 302 304 305 305 299 301 304 306 302 303 309 315 315 314 329 327 327 326 322 314 310 291 214
245 255 260 264 272 264 263 279 291 288 284 288 287 288 289 290 290 293 296 298 299 302 302 295 297 298 302 301 300 306 313 317 319 325 336 332 331 332 333 326 328 330 241